RH
82 69 66 66 64 68 69 70 64 66 72 77 79 82 86 86 87 95 98 82 98 100 81 75 66 75 77 88 89 79 86 93 99 98 96 96 97 81 90 86 94 92 93 97 89 94 89 88 87 83 91 92 94 93
78 77 70 66 64 67 66 72 65 68 73 77 79 83 86 86 89 94 99 89 89 100 98 93 89 76 74 68 82 90 91 98 96 99 98 97 96 96 93 96 90 98 99 99 80 80 88 85 87 86 84 90 88 89
74 76 74 66 65 64 66 69 64 68 74 77 80 84 86 86 86 92 98 97 99 99 99 95 82 74 73 81 79 96 95 83 96 93 99 98 99 95 98 94 97 97 97 100 97 98 96 90 85 79 78 84 80 79
78 75 73 67 68 66 69 66 66 70 76 80 83 87 90 88 87 92 98 95 96 99 99 85 69 82 70 75 84 79 79 88 92 95 98 100 99 91 96 95 95 98 100 100 99 100 97 94 96 93 79 78 78 76
83 76 70 69 66 66 67 66 71 73 77 82 84 89 89 88 88 94 97 92 84 96 99 92 85 70 68 81 87 88 88 92 97 97 100 99 98 97 95 91 94 99 99 99 99 100 100 99 98 72 79 80 78 79
79 76 70 66 64 63 67 69 73 78 84 86 88 89 90 87 92 97 100 98 87 87 100 98 84 83 84 84 88 97 94 96 94 98 100 99 90 93 98 98 97 97 96 99 99 100 100 100 98 91 77 77 75 77
74 76 69 65 64 66 69 76 81 85 87 92 94 92 86 85 96 98 94 89 83 93 100 92 96 82 88 90 95 97 93 89 96 97 98 98 93 93 98 98 96 95 94 94 96 98 96 95 95 90 74 74 75 75
77 72 66 64 63 69 75 79 85 87 91 91 92 92 88 88 92 96 95 89 82 98 98 91 87 94 90 98 96 93 92 91 96 95 95 95 96 95 96 91 89 91 89 88 90 85 95 80 72 73 70 72 79 80
73 68 67 66 66 74 78 86 88 90 90 90 90 93 96 99 100 98 92 84 90 96 95 98 94 93 95 93 95 99 97 99 97 99 97 95 96 98 97 91 89 89 90 88 89 73 79 80 77 75 74 75 79 78
69 66 66 71 75 85 90 92 92 91 91 91 98 100 100 99 89 92 98 100 99 99 99 99 90 95 94 100 100 99 98 94 99 94 94 95 95 93 91 94 91 85 83 77 76 79 78 79 81 80 79 78 79 79
66 70 73 82 92 92 93 92 95 95 95 100 100 100 97 84 95 100 99 99 99 98 98 92 94 92 98 99 99 99 99 98 92 99 96 97 96 92 91 89 84 79 78 80 79 79 77 74 78 78 78 76 77 78
72 77 91 93 92 92 91 94 94 96 98 94 95 93 95 98 100 99 98 99 90 93 99 98 96 98 100 99 100 100 99 98 96 98 97 99 95 92 88 84 81 81 80 80 80 85 84 78 80 79 78 80 83 84
90 94 93 89 87 92 96 93 90 85 77 87 93 98 98 97 98 96 97 90 96 96 99 100 100 99 98 97 100 100 93 96 98 97 98 98 93 88 84 77 77 72 73 76 82 82 85 90 92 90 95 95 95 96
93 87 81 83 93 95 92 90 81 80 86 90 91 98 94 98 98 98 94 97 98 99 99 99 99 96 99 97 99 98 98 98 97 99 96 98 96 93 89 81 82 93 94 91 96 96 96 96 98 97 98 98 96 98
92 90 92 88 94 82 76 71 65 80 82 91 83 99 99 97 98 98 98 96 97 98 99 100 98 95 96 95 96 95 91 98 95 97 98 97 96 94 97 91 94 94 97 99 99 98 98 98 97 98 98 98 96 96
81 80 95 89 81 73 70 70 77 80 89 87 89 95 98 96 98 98 98 98 97 98 99 96 96 94 97 96 90 98 95 97 97 99 98 96 99 98 98 96 98 98 98 99 98 97 97 97 98 99 97 97 98 96
65 77 90 82 74 72 66 73 79 83 89 88 98 98 98 98 98 98 98 96 95 97 100 95 93 98 86 94 97 96 98 97 99 99 99 97 96 98 97 96 97 96 97 97 97 97 100 98 96 91 96 98 95 97
83 86 77 75 72 68 77 80 82 81 95 97 96 99 99 99 98 98 98 96 97 98 94 98 84 92 100 96 100 99 99 98 99 99 99 99 98 97 95 96 96 95 96 96 96 97 94 95 95 97 97 97 97 97
84 78 83 79 74 80 82 85 79 96 98 98 98 98 98 99 95 96 97 94 84 81 88 92 92 99 100 100 100 100 99 98 98 99 97 98 98 96 97 97 97 98 96 98 97 96 96 96 94 94 94 89 94 95
89 89 87 78 70 78 77 88 83 85 97 98 95 95 96 98 97 97 91 87 75 82 91 93 96 98 97 99 98 97 99 98 96 99 99 98 98 98 98 97 96 96 97 98 98 95 96 96 95 94 91 88 97 100
75 78 75 73 82 81 85 87 90 88 89 90 78 69 88 83 91 95 91 71 90 98 97 98 98 98 98 98 100 98 98 95 97 96 98 99 98 98 97 97 96 98 98 99 97 98 96 97 95 93 98 99 99 98
83 72 80 78 82 81 87 88 90 93 92 89 92 82 94 96 98 98 81 92 99 98 98 99 98 99 98 99 100 100 100 97 98 98 97 97 99 98 99 99 98 98 98 98 96 97 97 95 97 97 99 100 99 99
75 75 86 80 86 85 97 96 92 85 97 97 87 87 95 99 96 73 99 97 99 98 100 98 99 99 97 98 95 96 96 93 97 98 98 99 99 99 98 98 98 98 98 98 97 96 97 95 95 98 100 99 99 100
67 88 93 93 89 98 91 93 84 86 89 91 92 98 90 95 85 94 100 100 99 97 99 99 97 97 94 92 99 100 100 97 98 98 99 97 99 99 97 97 96 98 99 99 98 100 100 100 100 99 100 100 100 100
74 84 88 93 91 89 93 96 94 89 98 97 98 100 100 90 98 99 97 100 100 100 99 98 94 94 98 100 100 99 95 96 96 99 99 97 99 99 99 99 99 98 96 99 100 100 100 100 99 99 99 100 99 100
93 91 91 98 96 89 93 97 98 98 97 100 97 98 96 96 98 100 96 98 100 100 99 97 98 98 98 97 97 98 97 97 89 96 99 98 97 97 100 99 99 98 99 100 100 100 100 100 100 100 100 99 99 100
94 98 94 74 88 84 95 95 89 94 100 100 100 97 93 100 100 96 100 99 98 98 96 93 85 88 91 96 96 98 98 96 94 93 94 94 96 98 97 98 99 98 99 100 99 99 99 100 100 100 100 100 100 100
96 90 92 92 96 91 98 99 98 97 100 95 89 97 84 78 87 97 98 99 98 94 95 96 91 86 91 96 97 96 98 98 96 97 96 96 98 100 100 100 100 100 100 100 100 99 99 98 100 100 100 100 100 100
96 94 88 99 96 98 100 100 100 98 95 94 99 100 100 97 98 100 99 99 92 90 94 96 100 100 99 99 100 100 100 98 99 100 100 100 100 99 100 100 100 100 100 100 100 100 99 100 100 100 100 100 100 100
96 94 97 100 100 100 99 98 99 99 97 99 98 97 95 98 98 99 97 96 93 96 98 94 99 99 100 100 100 100 100 100 100 98 100 100 98 99 100 100 100 100 100 100 100 99 100 100 100 100 100 100 100 100
93 96 98 99 100 100 99 100 100 100 100 100 100 99 100 99 98 99 98 100 97 98 98 100 100 100 95 100 100 100 100 100 100 100 100 100 100 100 100 100 100 100 100 100 100 100 100 100 100 100 100 100 100 100
99 100 97 100 100 98 97 100 100 100 100 100 100 100 97 97 100 98 100 99 98 100 100 98 99 98 98 99 99 100 98 100 100 100 100 100 100 100 100 100 100 100 100 100 100 100 100 100 100 100 100 100 100 100
99 100 100 100 100 100 100 97 99 100 100 100 100 100 100 96 96 95 99 99 95 91 95 95 100 100 98 99 100 100 100 100 100 100 100 100 100 100 100 100 100 100 100 100 100 100 100 100 100 100 100 100 100 100
Wind_Speed
22 21 18 18 16 18 18 16 15 17 17 15 15 14 14 13 12 9 3 12 5 3 5 3 5 6 1 1 1 4 5 2 3 2 1 2 1 1 3 1 3 3 3 3 3 3 7 8 4 1 2 6 7 10
20 23 19 18 17 18 17 16 15 18 18 16 16 16 15 14 13 10 3 7 7 3 2 2 4 6 7 9 3 3 2 2 1 3 1 2 3 3 1 2 2 1 3 3 4 3 5 6 6 6 7 7 6 9
20 21 20 18 18 17 18 16 16 18 18 17 17 17 15 15 13 12 4 5 3 1 3 4 8 11 10 10 5 3 2 3 2 4 3 2 4 2 1 1 3 3 3 4 5 5 9 8 9 10 11 11 10 10
22 22 21 19 19 18 17 17 17 18 18 19 17 16 15 14 15 16 4 5 4 2 2 6 2 5 5 9 12 12 7 3 3 2 1 4 3 2 2 2 2 4 6 5 5 5 5 9 8 9 11 10 11 11
23 23 19 18 18 18 18 17 18 18 19 18 18 18 16 15 9 10 4 5 5 3 1 4 5 10 9 9 13 10 9 3 2 2 3 4 3 1 2 1 2 3 4 3 2 5 4 5 7 10 12 11 11 11
21 21 19 17 19 18 19 20 19 19 19 20 20 19 17 12 13 5 1 5 7 3 1 3 4 4 1 5 8 10 7 3 4 3 3 3 4 1 1 1 4 5 5 7 4 4 10 7 9 10 11 10 10 11
22 21 19 19 18 19 21 19 19 20 20 20 18 16 11 9 7 4 5 5 16 5 2 3 4 4 2 4 3 3 5 4 3 2 3 2 3 2 2 1 4 6 7 7 10 3 6 12 6 7 9 9 10 8
20 20 19 19 18 20 21 20 21 23 20 15 14 14 9 12 8 1 1 14 12 4 3 3 5 4 2 2 3 3 4 4 3 2 2 2 1 1 1 4 4 6 4 8 9 9 6 8 8 9 8 6 8 9
20 18 19 18 20 21 20 22 23 22 20 18 17 16 6 2 3 4 9 21 2 3 4 3 3 4 1 3 3 1 3 3 1 2 3 1 1 1 1 6 6 6 4 5 3 7 8 9 8 9 8 9 8 8
17 19 19 20 18 22 24 26 23 21 21 19 8 3 3 4 19 15 3 3 2 2 3 3 2 3 2 1 2 3 2 3 3 4 4 2 2 5 7 7 6 7 8 9 1 4 7 6 6 7 8 6 7 7
18 19 19 18 23 25 21 17 15 24 24 5 5 3 4 19 5 2 4 3 4 3 4 4 6 4 2 2 2 3 3 4 4 3 4 3 3 4 6 7 6 7 7 8 7 6 6 5 5 6 7 8 8 8
17 14 20 22 23 12 14 9 7 2 5 9 11 10 3 3 3 4 4 4 5 6 2 4 4 3 2 2 2 3 3 2 3 3 3 2 3 8 7 7 6 5 6 7 7 7 8 8 8 8 8 8 8 8
17 19 22 14 11 9 7 6 11 25 18 6 7 4 2 2 4 6 7 4 4 3 4 3 2 3 1 0 3 2 3 2 3 4 2 1 7 6 6 6 7 7 8 8 9 9 9 10 10 8 7 7 7 7
16 10 10 10 9 7 20 9 6 6 7 6 3 6 3 2 1 3 1 2 1 1 2 2 2 2 1 1 2 2 2 1 3 2 2 1 5 6 5 5 6 5 6 8 7 6 7 8 8 7 7 5 5 6
4 6 12 12 11 18 13 14 11 5 5 5 4 5 3 1 1 1 2 0 2 2 0 3 3 2 3 3 3 2 5 3 3 2 2 1 5 5 5 5 5 5 4 5 3 5 6 6 7 7 6 5 6 6
8 14 9 21 17 14 13 9 6 4 5 5 8 4 2 4 3 3 3 2 3 2 1 3 3 5 4 2 5 2 1 1 2 0 1 3 2 3 4 5 5 4 4 4 4 4 5 6 6 4 5 6 5 6
5 4 13 14 18 15 11 6 5 7 5 5 4 3 2 3 2 1 3 3 4 2 2 3 5 2 1 4 3 3 3 3 2 1 1 2 4 4 5 5 4 4 4 4 3 4 4 3 4 6 8 4 6 5
5 14 14 13 6 5 4 5 5 6 7 4 4 2 2 2 2 3 3 4 2 2 3 3 3 5 3 3 2 2 1 2 3 2 2 3 4 4 4 5 4 4 4 4 4 3 3 4 5 4 4 3 4 4
9 8 7 3 3 5 5 5 4 6 4 3 3 2 3 2 4 3 4 4 5 5 4 4 6 3 1 2 3 1 1 2 2 2 2 2 3 5 4 4 4 3 3 2 2 2 2 3 3 2 2 2 3 2
14 10 7 2 1 4 6 4 4 5 4 2 2 3 3 2 2 3 6 6 4 4 6 5 2 1 1 0 2 3 2 3 4 3 2 2 2 3 2 3 2 3 3 2 2 3 2 2 2 3 2 3 2 2
7 2 7 4 4 6 5 3 4 3 4 4 4 2 3 2 3 3 4 4 5 4 3 2 1 1 2 2 2 3 3 3 3 3 4 2 1 2 2 2 3 2 2 1 2 2 3 2 2 2 2 3 3 3
2 6 4 5 5 4 5 4 5 4 4 4 4 3 3 3 2 2 2 6 4 1 1 2 0 1 4 4 3 3 3 5 3 4 5 4 2 2 1 1 2 2 2 1 2 2 2 2 2 3 3 2 3 3
4 5 5 4 7 6 1 1 4 3 4 3 2 3 3 3 1 2 4 3 1 1 1 2 2 3 6 2 6 7 5 6 5 4 4 3 3 2 3 3 3 3 3 2 2 2 2 3 3 3 3 3 3 3
8 6 5 4 5 2 2 3 3 3 3 3 3 3 1 2 1 4 4 1 2 1 2 2 3 4 4 5 4 2 3 3 5 4 3 3 4 3 3 3 3 3 2 2 3 3 3 2 3 3 3 3 2 2
8 8 5 5 4 6 5 3 3 5 3 2 4 1 1 2 4 3 3 3 3 2 3 2 3 3 4 1 1 2 3 2 4 4 3 2 3 3 3 3 3 3 2 3 2 2 2 2 2 3 3 3 4 3
8 5 4 1 2 5 3 4 3 5 4 3 1 1 3 4 4 3 3 5 4 4 4 5 4 3 1 1 3 1 1 1 3 3 2 2 2 3 3 2 1 2 3 2 4 3 1 1 2 2 2 0 3 4
5 3 2 3 2 4 4 3 3 5 4 5 3 3 4 4 3 4 0 2 3 3 4 5 5 5 5 3 3 2 2 3 4 5 3 3 3 2 3 3 2 2 1 2 3 3 4 4 3 2 3 0 2 3
3 3 4 4 5 3 5 3 3 2 2 1 4 3 7 7 5 3 2 1 5 7 7 5 5 5 5 4 4 5 5 4 6 4 3 3 4 3 4 3 3 4 3 2 2 3 3 5 5 5 3 3 2 2
4 2 4 6 5 5 4 2 1 1 2 3 5 3 3 2 1 1 1 2 5 8 7 7 3 4 6 5 4 3 3 4 5 4 2 2 3 4 2 2 2 2 2 3 4 4 5 4 4 4 4 3 2 2
2 2 5 3 5 3 3 1 1 2 2 2 2 3 3 3 2 0 3 4 5 5 4 5 5 4 5 5 2 3 2 1 3 4 4 4 5 3 1 1 1 1 1 3 3 3 6 5 4 4 3 3 3 3
1 4 5 4 3 2 2 2 1 3 4 3 2 5 2 2 2 3 3 2 5 6 7 5 3 1 5 4 4 4 1 2 2 3 2 3 3 3 2 1 1 1 2 3 3 3 2 3 3 2 3 3 3 3
4 3 5 4 1 3 2 3 1 4 4 4 3 2 4 4 1 3 1 4 4 4 2 5 5 4 4 1 2 1 2 5 4 4 6 4 3 2 2 1 1 2 4 4 3 3 3 3 3 3 3 2 1 1
3 3 3 4 3 1 3 4 4 2 3 2 1 2 2 4 5 4 1 0 4 6 7 5 2 3 5 6 5 4 4 4 5 5 6 6 5 4 3 2 2 3 5 4 3 3 4 3 2 1 1 2 1 2
Wind_Direction
238 230 231 235 241 250 252 250 259 265 275 280 285 286 286 275 248 212 153 181 176 209 244 225 215 216 271 145 200 311 1 353 318 291 269 296 232 266 296 197 186 188 148 175 168 187 259 7 333 207 165 56 69 59
225 231 231 233 234 248 253 247 258 262 274 277 279 277 279 274 269 189 133 177 184 202 285 321 269 248 226 230 198 238 229 301 196 296 256 317 307 339 339 320 36 8 329 286 199 186 63 9 42 36 65 73 52 63
240 236 232 234 241 242 251 250 258 261 271 273 271 274 275 269 267 177 133 136 158 258 271 247 244 232 231 217 185 181 273 230 164 163 313 302 259 126 298 274 268 230 41 259 145 52 70 48 46 64 72 77 68 59
238 233 228 235 239 239 244 253 256 263 269 272 270 274 270 262 270 181 151 147 138 154 265 275 280 237 235 198 202 208 223 18 64 77 282 276 269 157 260 275 306 21 318 326 71 107 98 47 51 67 67 64 71 68
251 229 226 230 243 244 245 252 256 261 269 266 273 267 259 256 249 163 130 174 167 175 265 276 294 248 218 175 195 202 209 168 147 252 225 241 261 341 256 117 67 15 352 360 40 341 42 45 56 61 63 50 47 53
241 227 222 233 242 243 251 252 256 262 265 264 262 257 247 242 179 114 136 183 188 134 275 300 292 286 89 156 171 174 181 168 201 209 222 249 275 103 301 71 59 65 49 21 351 24 75 72 60 61 75 66 53 56
237 225 227 237 240 243 250 253 256 260 261 257 245 239 228 225 165 164 185 187 165 112 194 276 281 271 110 109 129 130 174 197 186 232 211 244 305 26 339 171 72 77 58 38 22 145 80 42 57 54 74 74 75 75
230 223 232 238 243 251 253 258 257 260 255 240 225 221 221 175 142 137 326 140 140 110 199 240 260 336 151 169 148 152 155 184 221 213 177 194 196 49 184 107 43 14 64 39 30 44 72 104 77 56 51 68 68 54
224 229 241 243 246 252 262 261 264 258 245 228 217 211 218 144 133 161 148 149 117 156 189 215 212 242 200 188 155 137 149 161 211 177 211 86 98 210 356 115 75 35 35 341 7 47 59 68 64 51 46 41 55 44
229 239 240 248 253 263 260 262 253 242 230 212 177 109 167 201 128 109 72 120 139 241 213 224 159 250 154 233 170 134 148 185 192 210 103 102 99 81 68 64 62 47 33 10 38 38 25 48 67 56 53 49 51 60
234 241 248 255 258 260 257 259 267 224 215 154 142 142 122 145 79 118 134 163 159 220 203 222 192 196 175 179 242 195 160 165 214 169 166 143 135 112 101 79 60 54 48 45 56 48 33 38 36 66 61 56 57 53
241 246 252 255 261 247 250 251 335 65 139 144 111 94 107 98 133 153 155 138 194 215 200 182 181 180 153 125 236 186 166 160 217 117 93 123 95 108 110 95 77 65 69 66 56 62 46 50 48 62 63 61 61 65
248 254 258 249 251 218 214 136 133 117 108 72 67 73 121 332 109 160 172 175 195 186 170 177 136 143 105 76 246 159 148 159 90 46 120 87 112 103 103 101 74 56 61 63 57 58 65 63 52 64 75 61 72 63
250 236 236 220 190 163 119 102 86 37 57 64 97 58 47 34 72 185 93 105 119 178 110 102 85 96 71 53 343 79 25 108 86 84 231 14 92 85 74 76 87 64 60 69 62 56 61 64 60 51 56 52 73 73
85 290 191 158 141 106 107 75 64 56 64 68 61 67 67 201 45 284 264 111 16 330 187 112 78 74 21 63 17 35 35 60 32 196 227 69 84 91 79 81 85 87 81 71 51 70 64 63 69 63 46 49 66 70
109 54 84 105 105 86 63 53 45 72 67 67 43 62 25 61 355 21 6 44 0 329 353 47 89 61 38 88 49 25 6 199 236 170 103 91 63 75 84 78 84 93 87 78 62 77 84 76 81 75 67 60 56 69
50 69 116 105 84 67 59 68 49 51 67 55 41 40 86 97 132 349 358 346 322 21 80 64 64 187 80 54 56 18 162 216 195 77 56 89 108 113 106 100 104 105 94 84 79 81 75 80 74 81 75 49 75 80
81 131 130 113 119 73 48 45 76 69 67 46 74 344 57 45 22 1 342 341 360 66 53 82 91 56 85 119 264 233 108 78 74 81 67 75 87 93 102 110 101 104 108 107 112 111 107 95 92 92 102 96 86 69
119 115 118 187 81 96 80 39 56 87 75 97 115 71 73 87 42 10 10 12 47 47 79 50 67 66 132 177 160 193 85 105 118 75 69 64 106 113 115 112 123 109 124 128 131 116 112 92 114 122 118 100 100 99
126 139 207 347 141 79 75 46 64 81 86 100 54 46 69 49 20 16 28 24 39 54 53 47 56 53 76 104 175 136 144 116 109 85 36 20 34 108 129 141 139 139 123 113 125 152 158 137 167 155 157 154 123 103
102 101 59 58 51 60 84 94 62 91 120 80 150 103 83 58 40 22 27 0 56 37 67 58 40 351 53 54 109 108 96 101 140 143 168 124 264 129 130 117 127 100 103 98 105 82 87 94 85 85 80 78 88 98
63 56 73 28 76 63 74 18 111 134 87 125 159 116 86 62 17 19 40 42 58 5 95 122 69 37 63 42 15 52 139 101 83 79 62 85 79 73 82 132 107 100 94 129 122 127 109 99 83 82 100 107 92 93
52 49 46 48 70 58 121 101 83 103 100 130 81 76 45 59 96 81 69 79 91 21 103 87 75 48 86 53 79 56 46 94 85 76 83 83 72 52 64 60 81 108 96 51 65 116 110 112 99 98 94 85 94 62
36 52 57 67 76 121 31 29 67 81 71 67 78 85 54 153 104 62 89 130 223 129 70 94 115 89 55 46 52 25 22 81 95 65 27 85 84 48 50 55 50 45 58 93 69 68 62 79 110 101 100 99 91 124
70 345 67 28 6 74 69 35 28 65 93 104 89 61 230 88 76 69 150 193 162 132 150 116 94 86 120 143 16 15 21 94 117 101 359 64 102 64 58 50 44 28 33 76 40 64 14 23 110 128 136 131 154 171
70 307 72 170 331 98 167 102 138 148 116 80 161 51 48 84 75 194 202 172 174 162 167 156 143 118 76 123 139 138 211 59 95 89 28 24 93 142 164 137 74 331 19 111 128 127 102 69 89 119 128 118 146 139
75 336 356 36 350 86 61 43 63 95 105 151 182 84 83 88 211 243 177 201 143 194 159 150 156 144 146 131 94 58 54 62 89 109 97 58 40 22 140 149 170 240 11 91 149 152 160 163 151 158 149 30 206 185
138 39 105 322 51 22 111 66 75 112 189 200 83 90 147 170 191 201 183 192 124 107 91 73 69 103 109 102 114 110 73 79 90 82 65 54 47 37 39 43 45 74 69 71 112 108 131 154 159 172 171 179 200 194
41 337 77 38 38 42 41 81 164 5 14 100 113 159 180 57 310 83 82 121 118 110 104 103 36 73 73 66 43 34 101 126 102 84 86 271 338 305 6 29 31 34 36 63 57 110 120 134 158 173 178 173 162 123
344 35 88 62 69 25 282 142 252 274 6 93 100 94 60 21 350 303 93 90 115 126 138 129 135 125 142 127 123 39 4 91 159 143 167 229 223 217 140 80 65 40 57 78 70 20 27 43 49 41 52 47 50 59
21 70 71 66 86 285 230 303 344 97 43 39 348 85 89 107 69 34 76 77 113 114 110 112 68 96 128 137 138 122 312 287 217 216 177 139 129 130 149 169 165 124 99 98 92 85 76 44 46 61 90 91 65 89
36 87 119 105 142 274 38 52 75 77 346 47 357 42 15 51 86 292 249 102 98 117 160 142 143 204 196 146 146 216 179 131 145 146 140 130 127 147 136 84 66 76 83 87 90 89 79 102 95 98 124 145 164 159
68 65 52 92 70 159 271 88 29 85 33 65 15 141 183 159 182 225 312 140 168 169 170 170 130 119 136 154 153 134 106 115 129 116 109 108 119 119 103 84 83 94 107 105 95 98 104 106 100 118 153 178 233 266